NSZ24KW EFHK-LEPA

Flight info

Callsign NSZ24KW
Flight time 3h 39m
Altitude 36000
Route VALOX DCT DANKA DCT ROSAX DCT LEMSI DCT DEREX DCT ANFEV DCT PENOR DCT LATAG DCT BUDEX DCT DETSA/N0442F370 DCT PIDAD DCT TALEP DCT RARQU DCT BALEN UT250 RIXOT
Aircraft B738/M-SDE2E3FGHIRWXY/LB1

Departure

Time 2026-04-20 18:21
Airport Helsinki Vantaa Airport (EFHK)

Arrival

Time 2026-04-20 22:00
Airport Palma de Mallorca Airport (LEPA)
Time Latitude Longitude Altitude Speed Heading
2026-04-20 17:41 60.31788 24.97084 188 ft 0 kts 243°
2026-04-20 18:09 60.31791 24.97097 188 ft 2 kts 243°
2026-04-20 18:09 60.31797 24.97124 188 ft 2 kts 243°
2026-04-20 18:09 60.31804 24.97151 188 ft 2 kts 259°
2026-04-20 18:10 60.31804 24.97181 188 ft 2 kts 282°
2026-04-20 18:10 60.31799 24.97209 188 ft 2 kts 304°
2026-04-20 18:10 60.31788 24.97231 188 ft 2 kts 327°
2026-04-20 18:10 60.31777 24.97243 188 ft 0 kts 336°
2026-04-20 18:11 60.31775 24.97245 188 ft 0 kts 334°
2026-04-20 18:14 60.31802 24.97218 188 ft 8 kts 332°
2026-04-20 18:14 60.31891 24.97126 188 ft 16 kts 333°
2026-04-20 18:14 60.31988 24.97024 188 ft 15 kts 333°
2026-04-20 18:15 60.32082 24.96924 188 ft 15 kts 330°
2026-04-20 18:15 60.32182 24.96807 188 ft 16 kts 330°
2026-04-20 18:15 60.32243 24.96664 188 ft 13 kts 246°
2026-04-20 18:15 60.32177 24.96506 188 ft 20 kts 227°
2026-04-20 18:16 60.32052 24.96229 188 ft 28 kts 227°
2026-04-20 18:16 60.31921 24.95940 188 ft 27 kts 227°
2026-04-20 18:16 60.31792 24.95657 188 ft 26 kts 227°
2026-04-20 18:16 60.31670 24.95391 188 ft 25 kts 227°
2026-04-20 18:17 60.31553 24.95131 188 ft 24 kts 227°
2026-04-20 18:17 60.31439 24.94880 188 ft 23 kts 228°
2026-04-20 18:17 60.31331 24.94641 188 ft 22 kts 228°
2026-04-20 18:17 60.31225 24.94409 188 ft 22 kts 227°
2026-04-20 18:18 60.31118 24.94172 188 ft 22 kts 227°
2026-04-20 18:18 60.31034 24.93925 188 ft 20 kts 269°
2026-04-20 18:18 60.31105 24.93713 188 ft 17 kts 322°
2026-04-20 18:18 60.31162 24.93712 188 ft 7 kts 44°
2026-04-20 18:19 60.31169 24.93726 188 ft 0 kts 47°
2026-04-20 18:19 60.31171 24.93730 188 ft 2 kts 47°
2026-04-20 18:20 60.31271 24.93949 188 ft 51 kts 47°
2026-04-20 18:20 60.31655 24.94794 188 ft 110 kts 47°
2026-04-20 18:20 60.32287 24.96186 188 ft 158 kts 47°
2026-04-20 18:20 60.33104 24.98007 383 ft 181 kts 47°
2026-04-20 18:21 60.33881 24.99811 1235 ft 168 kts 46°
2026-04-20 18:21 60.34649 25.01477 1914 ft 164 kts 44°
2026-04-20 18:21 60.35457 25.03187 2271 ft 175 kts 45°
2026-04-20 18:21 60.36308 25.05044 2633 ft 186 kts 46°
2026-04-20 18:22 60.37195 25.07007 2964 ft 198 kts 46°
2026-04-20 18:22 60.38168 25.09172 3239 ft 215 kts 48°
2026-04-20 18:22 60.39000 25.11738 3599 ft 230 kts 66°
2026-04-20 18:22 60.39170 25.15041 3977 ft 249 kts 97°
2026-04-20 18:23 60.38561 25.18390 4560 ft 257 kts 111°
2026-04-20 18:23 60.37779 25.21609 5123 ft 260 kts 111°
2026-04-20 18:23 60.36980 25.24902 5734 ft 261 kts 111°
2026-04-20 18:23 60.36193 25.28214 6355 ft 263 kts 110°
2026-04-20 18:24 60.35403 25.31516 6960 ft 264 kts 112°
2026-04-20 18:24 60.34348 25.34621 7522 ft 275 kts 130°
2026-04-20 18:24 60.32738 25.36759 8160 ft 286 kts 154°
2026-04-20 18:24 60.30770 25.37609 8731 ft 296 kts 172°
2026-04-20 18:25 60.28727 25.37690 9303 ft 300 kts 175°
2026-04-20 18:25 60.26626 25.37633 9896 ft 304 kts 179°
2026-04-20 18:25 60.24530 25.36874 10485 ft 312 kts 196°
2026-04-20 18:25 60.22586 25.34772 10769 ft 329 kts 218°
2026-04-20 18:26 60.20992 25.31383 11028 ft 343 kts 231°
2026-04-20 18:26 60.19488 25.27548 11301 ft 358 kts 232°
2026-04-20 18:26 60.17916 25.23511 11502 ft 373 kts 232°
2026-04-20 18:26 60.16260 25.19298 11749 ft 388 kts 231°
2026-04-20 18:27 60.14577 25.15055 12092 ft 398 kts 231°
2026-04-20 18:27 60.12837 25.10700 12693 ft 402 kts 231°
2026-04-20 18:27 60.11069 25.06296 13299 ft 407 kts 231°
2026-04-20 18:27 60.09303 25.01909 13900 ft 411 kts 231°
2026-04-20 18:28 60.07510 24.97468 14511 ft 414 kts 231°
2026-04-20 18:28 60.05672 24.92920 15146 ft 418 kts 231°
2026-04-20 18:28 60.03840 24.88397 15700 ft 423 kts 231°
2026-04-20 18:28 60.01979 24.83813 16293 ft 428 kts 231°
2026-04-20 18:29 60.00114 24.79223 16911 ft 431 kts 231°
2026-04-20 18:29 59.98224 24.74579 17465 ft 435 kts 231°
2026-04-20 18:29 59.96317 24.69905 18022 ft 439 kts 231°
2026-04-20 18:29 59.94374 24.65150 18566 ft 443 kts 230°
2026-04-20 18:30 59.92421 24.60382 19100 ft 447 kts 231°
2026-04-20 18:30 59.90454 24.55591 19617 ft 451 kts 230°
2026-04-20 18:30 59.88462 24.50752 20142 ft 454 kts 230°
2026-04-20 18:30 59.86454 24.45883 20596 ft 459 kts 230°
2026-04-20 18:31 59.84449 24.41029 21055 ft 464 kts 230°
2026-04-20 18:31 59.82385 24.36044 21593 ft 466 kts 230°
2026-04-20 18:31 59.80318 24.31062 22020 ft 471 kts 229°
2026-04-20 18:31 59.78235 24.26052 22472 ft 474 kts 229°
2026-04-20 18:32 59.76131 24.21038 22923 ft 477 kts 228°
2026-04-20 18:32 59.73908 24.16102 23308 ft 481 kts 224°
2026-04-20 18:32 59.71508 24.11601 23734 ft 483 kts 218°
2026-04-20 18:32 59.68896 24.07393 24158 ft 485 kts 214°
2026-04-20 18:33 59.66188 24.03415 24602 ft 487 kts 212°
2026-04-20 18:33 59.63427 23.99551 25049 ft 490 kts 212°
2026-04-20 18:33 59.60617 23.95706 25475 ft 492 kts 211°
2026-04-20 18:33 59.57805 23.91879 25929 ft 494 kts 211°
2026-04-20 18:34 59.55008 23.88066 26276 ft 498 kts 211°
2026-04-20 18:34 59.52136 23.84128 26678 ft 501 kts 212°
2026-04-20 18:34 59.49318 23.80169 27035 ft 505 kts 213°
2026-04-20 18:34 59.46565 23.75808 27459 ft 509 kts 219°
2026-04-20 18:35 59.44005 23.71066 27758 ft 515 kts 223°
2026-04-20 18:35 59.41508 23.65945 28211 ft 516 kts 225°
2026-04-20 18:35 59.39148 23.60826 28777 ft 513 kts 226°
2026-04-20 18:35 59.36783 23.55589 29285 ft 512 kts 227°
2026-04-20 18:36 59.34441 23.50392 29736 ft 511 kts 226°
2026-04-20 18:36 59.32069 23.45164 30172 ft 511 kts 226°
2026-04-20 18:36 59.29691 23.39975 30593 ft 510 kts 226°
2026-04-20 18:36 59.27310 23.34834 30977 ft 510 kts 225°
2026-04-20 18:37 59.24928 23.29738 31464 ft 507 kts 224°
2026-04-20 18:37 59.22540 23.24670 31864 ft 506 kts 224°
2026-04-20 18:37 59.20104 23.19533 32249 ft 505 kts 224°
2026-04-20 18:37 59.17680 23.14451 32566 ft 505 kts 224°
2026-04-20 18:38 59.15300 23.09481 32932 ft 503 kts 224°
2026-04-20 18:38 59.12908 23.04499 33324 ft 501 kts 224°
2026-04-20 18:38 59.10521 22.99539 33699 ft 500 kts 224°
2026-04-20 18:38 59.08147 22.94617 33993 ft 499 kts 224°
2026-04-20 18:39 59.05794 22.89750 34341 ft 498 kts 224°
2026-04-20 18:39 59.03402 22.84815 34668 ft 496 kts 224°
2026-04-20 18:39 59.01057 22.79985 34984 ft 495 kts 224°
2026-04-20 18:39 58.98683 22.75115 35264 ft 494 kts 224°
2026-04-20 18:40 58.96321 22.70285 35452 ft 493 kts 224°
2026-04-20 18:40 58.93945 22.65443 35633 ft 492 kts 224°
2026-04-20 18:40 58.91587 22.60649 35789 ft 492 kts 224°
2026-04-20 18:40 58.89222 22.55849 35948 ft 492 kts 225°
2026-04-20 18:41 58.86883 22.51110 36104 ft 491 kts 225°
2026-04-20 18:41 58.84524 22.46338 36251 ft 491 kts 225°
2026-04-20 18:41 58.79838 22.36891 36318 ft 492 kts 225°
2026-04-20 18:42 58.75133 22.27438 36327 ft 490 kts 224°
2026-04-20 18:42 58.70412 22.17993 36326 ft 489 kts 224°
2026-04-20 18:43 58.65675 22.08565 36327 ft 490 kts 224°
2026-04-20 18:43 58.60963 21.99221 36318 ft 490 kts 224°
2026-04-20 18:44 58.56165 21.89746 36318 ft 489 kts 224°
2026-04-20 18:44 58.51444 21.80461 36319 ft 488 kts 224°
2026-04-20 18:45 58.46696 21.71161 36320 ft 488 kts 224°
2026-04-20 18:45 58.41959 21.61923 36311 ft 489 kts 224°
2026-04-20 18:46 58.37202 21.52686 36312 ft 489 kts 224°
2026-04-20 18:46 58.32476 21.43545 36312 ft 488 kts 224°
2026-04-20 18:47 58.27672 21.34293 36316 ft 488 kts 223°
2026-04-20 18:47 58.22904 21.25146 36316 ft 488 kts 223°
2026-04-20 18:48 58.18135 21.16034 36314 ft 488 kts 223°
2026-04-20 18:48 58.13358 21.06945 36312 ft 487 kts 223°
2026-04-20 18:49 58.08561 20.97851 36316 ft 487 kts 223°
2026-04-20 18:49 58.03792 20.88848 36324 ft 487 kts 223°
2026-04-20 18:50 57.98997 20.79831 36332 ft 487 kts 223°
2026-04-20 18:50 57.94210 20.70870 36338 ft 488 kts 223°
2026-04-20 18:51 57.89390 20.61881 36335 ft 487 kts 223°
2026-04-20 18:51 57.84614 20.53007 36338 ft 486 kts 223°
2026-04-20 18:52 57.79781 20.44064 36334 ft 487 kts 223°
2026-04-20 18:52 57.74972 20.35199 36326 ft 486 kts 223°
2026-04-20 18:53 57.70170 20.26379 36327 ft 485 kts 222°
2026-04-20 18:53 57.65357 20.17648 36325 ft 486 kts 221°
2026-04-20 18:54 57.60361 20.09165 36329 ft 484 kts 219°
2026-04-20 18:54 57.55339 20.00892 36327 ft 484 kts 219°
2026-04-20 18:55 57.50292 19.92596 36332 ft 485 kts 219°
2026-04-20 18:55 57.45292 19.84358 36328 ft 485 kts 219°
2026-04-20 18:56 57.40244 19.76039 36326 ft 485 kts 220°
2026-04-20 18:56 57.35204 19.67747 36327 ft 484 kts 220°
2026-04-20 18:57 57.30167 19.59485 36328 ft 484 kts 220°
2026-04-20 18:57 57.25148 19.51279 36325 ft 484 kts 220°
2026-04-20 18:58 57.20090 19.43045 36325 ft 485 kts 220°
2026-04-20 18:58 57.15043 19.34859 36325 ft 485 kts 219°
2026-04-20 18:59 57.09987 19.26689 36326 ft 484 kts 219°
2026-04-20 18:59 57.04911 19.18519 36317 ft 483 kts 219°
2026-04-20 19:00 56.99818 19.10355 36313 ft 484 kts 219°
2026-04-20 19:00 56.94776 19.02301 36311 ft 484 kts 219°
2026-04-20 19:01 56.89686 18.94198 36317 ft 485 kts 219°
2026-04-20 19:01 56.84621 18.86166 36314 ft 484 kts 219°
2026-04-20 19:02 56.79529 18.78124 36317 ft 483 kts 219°
2026-04-20 19:02 56.74416 18.70079 36314 ft 483 kts 219°
2026-04-20 19:03 56.69349 18.62136 36317 ft 482 kts 219°
2026-04-20 19:03 56.64266 18.54197 36306 ft 483 kts 219°
2026-04-20 19:04 56.59188 18.46294 36309 ft 483 kts 219°
2026-04-20 19:04 56.54087 18.38387 36312 ft 484 kts 219°
2026-04-20 19:05 56.48962 18.30470 36309 ft 483 kts 218°
2026-04-20 19:05 56.43893 18.22668 36312 ft 482 kts 218°
2026-04-20 19:06 56.38766 18.14809 36297 ft 482 kts 219°
2026-04-20 19:06 56.33658 18.07004 36298 ft 482 kts 219°
2026-04-20 19:07 56.28553 17.99233 36301 ft 483 kts 219°
2026-04-20 19:07 56.23409 17.91429 36303 ft 483 kts 219°
2026-04-20 19:08 56.15711 17.79805 36300 ft 483 kts 219°
2026-04-20 19:09 56.10602 17.72126 36292 ft 482 kts 219°
2026-04-20 19:09 56.05454 17.64418 36297 ft 484 kts 219°
2026-04-20 19:10 56.00315 17.56753 36292 ft 483 kts 219°
2026-04-20 19:10 55.95129 17.49041 36301 ft 483 kts 219°
2026-04-20 19:11 55.89994 17.41436 36301 ft 483 kts 219°
2026-04-20 19:11 55.84815 17.33788 36304 ft 481 kts 218°
2026-04-20 19:12 55.79586 17.26481 36302 ft 480 kts 212°
2026-04-20 19:12 55.73675 17.21246 36294 ft 477 kts 198°
2026-04-20 19:13 55.67370 17.17559 36291 ft 476 kts 194°
2026-04-20 19:13 55.60994 17.14366 36294 ft 474 kts 191°
2026-04-20 19:14 55.54592 17.11916 36294 ft 473 kts 188°
2026-04-20 19:14 55.48094 17.09621 36288 ft 472 kts 189°
2026-04-20 19:15 55.41654 17.07261 36287 ft 473 kts 189°
2026-04-20 19:15 55.35242 17.04823 36285 ft 473 kts 190°
2026-04-20 19:16 55.28827 17.02341 36279 ft 474 kts 190°
2026-04-20 19:16 55.22385 16.99833 36273 ft 474 kts 190°
2026-04-20 19:17 55.16008 16.97354 36261 ft 472 kts 190°
2026-04-20 19:17 55.09619 16.94878 36256 ft 472 kts 190°
2026-04-20 19:18 55.03233 16.92412 36266 ft 472 kts 190°
2026-04-20 19:18 54.96822 16.89945 36260 ft 473 kts 190°
2026-04-20 19:19 54.90416 16.87489 36251 ft 474 kts 190°
2026-04-20 19:19 54.83975 16.85025 36249 ft 472 kts 191°
2026-04-20 19:20 54.77566 16.82582 36248 ft 473 kts 191°
2026-04-20 19:20 54.71173 16.80155 36250 ft 472 kts 191°
2026-04-20 19:21 54.64774 16.77733 36241 ft 472 kts 191°
2026-04-20 19:21 54.58337 16.75304 36241 ft 472 kts 191°
2026-04-20 19:22 54.51945 16.72901 36235 ft 473 kts 191°
2026-04-20 19:22 54.45513 16.70490 36237 ft 473 kts 191°
2026-04-20 19:23 54.39098 16.68092 36228 ft 473 kts 191°
2026-04-20 19:23 54.32690 16.65706 36229 ft 473 kts 191°
2026-04-20 19:24 54.26282 16.63327 36221 ft 472 kts 191°
2026-04-20 19:24 54.19889 16.60960 36226 ft 473 kts 191°
2026-04-20 19:25 54.13429 16.58576 36227 ft 473 kts 191°
2026-04-20 19:25 54.07017 16.56218 36222 ft 473 kts 191°
2026-04-20 19:26 54.00599 16.53866 36206 ft 473 kts 192°
2026-04-20 19:26 53.94154 16.51510 36215 ft 473 kts 191°
2026-04-20 19:27 53.87735 16.49172 36203 ft 473 kts 192°
2026-04-20 19:27 53.81282 16.46829 36183 ft 472 kts 192°
2026-04-20 19:28 53.74875 16.44511 36171 ft 473 kts 192°
2026-04-20 19:28 53.68471 16.42200 36178 ft 472 kts 192°
2026-04-20 19:29 53.62031 16.39884 36164 ft 473 kts 192°
2026-04-20 19:29 53.55623 16.37586 36160 ft 473 kts 192°
2026-04-20 19:30 53.49170 16.35280 36157 ft 473 kts 192°
2026-04-20 19:30 53.42745 16.32989 36162 ft 472 kts 191°
2026-04-20 19:31 53.36341 16.30713 36153 ft 472 kts 191°
2026-04-20 19:31 53.29935 16.28444 36150 ft 471 kts 191°
2026-04-20 19:32 53.23532 16.26183 36140 ft 472 kts 191°
2026-04-20 19:32 53.17134 16.23931 36137 ft 472 kts 191°
2026-04-20 19:33 53.10700 16.21673 36131 ft 472 kts 191°
2026-04-20 19:33 53.04241 16.19414 36132 ft 471 kts 191°
2026-04-20 19:34 52.97849 16.17185 36127 ft 471 kts 191°
2026-04-20 19:34 52.91419 16.14950 36123 ft 471 kts 192°
2026-04-20 19:35 52.84992 16.12722 36122 ft 471 kts 192°
2026-04-20 19:35 52.78614 16.10517 36117 ft 471 kts 192°
2026-04-20 19:36 52.72208 16.08310 36119 ft 472 kts 192°
2026-04-20 19:36 52.65753 16.06093 36117 ft 471 kts 192°
2026-04-20 19:37 52.59360 16.03903 36116 ft 471 kts 192°
2026-04-20 19:37 52.52935 16.01709 36116 ft 470 kts 192°
2026-04-20 19:38 52.46553 15.99536 36113 ft 471 kts 192°
2026-04-20 19:38 52.40130 15.97356 36119 ft 471 kts 192°
2026-04-20 19:39 52.33730 15.95189 36118 ft 471 kts 192°
2026-04-20 19:39 52.27293 15.93017 36117 ft 471 kts 192°
2026-04-20 19:40 52.20867 15.90856 36113 ft 471 kts 192°
2026-04-20 19:40 52.14456 15.88705 36106 ft 471 kts 192°
2026-04-20 19:41 52.08048 15.86562 36106 ft 470 kts 192°
2026-04-20 19:41 52.01644 15.84427 36106 ft 471 kts 192°
2026-04-20 19:42 51.95244 15.82299 36095 ft 470 kts 192°
2026-04-20 19:42 51.88798 15.80161 36091 ft 471 kts 192°
2026-04-20 19:43 51.83485 15.78405 36092 ft 470 kts 192°
2026-04-20 19:43 51.76021 15.75944 36088 ft 470 kts 192°
2026-04-20 19:44 51.69624 15.73569 36085 ft 469 kts 197°
2026-04-20 19:44 51.63390 15.70351 36082 ft 469 kts 200°
2026-04-20 19:45 51.57229 15.66896 36074 ft 469 kts 200°
2026-04-20 19:45 51.51086 15.63466 36067 ft 469 kts 200°
2026-04-20 19:46 51.44878 15.60063 36068 ft 468 kts 200°
2026-04-20 19:46 51.38718 15.56738 36064 ft 468 kts 200°
2026-04-20 19:47 51.32555 15.53445 36062 ft 468 kts 200°
2026-04-20 19:47 51.26380 15.50165 36053 ft 468 kts 200°
2026-04-20 19:48 51.20192 15.46891 36052 ft 468 kts 200°
2026-04-20 19:48 51.14014 15.43633 36040 ft 467 kts 200°
2026-04-20 19:49 51.07856 15.40393 36034 ft 467 kts 200°
2026-04-20 19:49 51.01681 15.37153 36026 ft 466 kts 200°
2026-04-20 19:50 50.95548 15.33943 36019 ft 467 kts 199°
2026-04-20 19:50 50.89388 15.30728 36012 ft 468 kts 199°
2026-04-20 19:51 50.83182 15.27499 36004 ft 468 kts 199°
2026-04-20 19:51 50.77008 15.24297 36003 ft 467 kts 199°
2026-04-20 19:52 50.70868 15.21120 36006 ft 467 kts 199°
2026-04-20 19:52 50.64699 15.17937 36016 ft 467 kts 199°
2026-04-20 19:53 50.58542 15.14770 36023 ft 467 kts 199°
2026-04-20 19:53 50.52352 15.11594 36034 ft 467 kts 199°
2026-04-20 19:54 50.46140 15.08415 36040 ft 468 kts 200°
2026-04-20 19:54 50.39978 15.05271 36042 ft 468 kts 200°
2026-04-20 19:55 50.33790 15.02123 36043 ft 467 kts 200°
2026-04-20 19:55 50.27633 14.98999 36046 ft 467 kts 200°
2026-04-20 19:56 50.21447 14.95867 36049 ft 467 kts 200°
2026-04-20 19:56 50.15270 14.92750 36048 ft 466 kts 200°
2026-04-20 19:57 50.09132 14.89662 36050 ft 466 kts 200°
2026-04-20 19:57 50.02945 14.86557 36042 ft 466 kts 200°
2026-04-20 19:58 49.96795 14.83478 36040 ft 466 kts 200°
2026-04-20 19:58 49.90638 14.80403 36031 ft 466 kts 200°
2026-04-20 19:59 49.84440 14.77317 36029 ft 466 kts 200°
2026-04-20 19:59 49.78324 14.74281 36022 ft 465 kts 201°
2026-04-20 20:00 49.72150 14.71224 36025 ft 465 kts 201°
2026-04-20 20:00 49.65990 14.68182 36018 ft 465 kts 201°
2026-04-20 20:01 49.59807 14.65136 36020 ft 466 kts 201°
2026-04-20 20:01 49.53668 14.62120 36018 ft 466 kts 201°
2026-04-20 20:02 49.47504 14.59100 36019 ft 465 kts 201°
2026-04-20 20:02 49.41341 14.56090 36021 ft 464 kts 201°
2026-04-20 20:03 49.35196 14.53096 36033 ft 463 kts 201°
2026-04-20 20:03 49.29039 14.50104 36041 ft 463 kts 201°
2026-04-20 20:04 49.22902 14.47128 36047 ft 462 kts 202°
2026-04-20 20:04 49.16763 14.44160 36047 ft 463 kts 202°
2026-04-20 20:05 49.10580 14.41176 36050 ft 463 kts 202°
2026-04-20 20:05 49.04426 14.38217 36050 ft 461 kts 202°
2026-04-20 20:06 48.98324 14.35237 36060 ft 461 kts 204°
2026-04-20 20:06 48.92480 14.31271 36052 ft 454 kts 213°
2026-04-20 20:07 48.87123 14.26275 36045 ft 451 kts 217°
2026-04-20 20:07 48.81932 14.20983 36045 ft 450 kts 219°
2026-04-20 20:08 48.76787 14.15701 36023 ft 449 kts 219°
2026-04-20 20:08 48.71594 14.10432 36038 ft 449 kts 219°
2026-04-20 20:09 48.66375 14.05196 36041 ft 449 kts 218°
2026-04-20 20:09 48.61157 13.99999 36048 ft 448 kts 219°
2026-04-20 20:10 48.55968 13.94859 36044 ft 446 kts 219°
2026-04-20 20:10 48.50776 13.89733 36045 ft 444 kts 219°
2026-04-20 20:11 48.45575 13.84609 36065 ft 446 kts 219°
2026-04-20 20:11 48.40410 13.79538 36072 ft 443 kts 219°
2026-04-20 20:12 48.35210 13.74441 36058 ft 444 kts 219°
2026-04-20 20:12 48.30059 13.69404 36066 ft 444 kts 219°
2026-04-20 20:13 48.22324 13.61869 36065 ft 441 kts 219°
2026-04-20 20:13 48.17181 13.56876 36064 ft 442 kts 219°
2026-04-20 20:14 48.12006 13.51852 36078 ft 444 kts 219°
2026-04-20 20:14 48.06828 13.46851 36078 ft 440 kts 220°
2026-04-20 20:15 48.01711 13.41915 36081 ft 442 kts 220°
2026-04-20 20:15 47.96550 13.36949 36077 ft 441 kts 220°
2026-04-20 20:16 47.91407 13.32014 36070 ft 440 kts 219°
2026-04-20 20:16 47.86250 13.27073 36080 ft 442 kts 219°
2026-04-20 20:17 47.81072 13.22127 36085 ft 442 kts 219°
2026-04-20 20:17 47.75922 13.17222 36097 ft 440 kts 219°
2026-04-20 20:18 47.70771 13.12326 36090 ft 440 kts 219°
2026-04-20 20:18 47.65604 13.07425 36092 ft 441 kts 219°
2026-04-20 20:19 47.60455 13.02554 36081 ft 439 kts 219°
2026-04-20 20:19 47.55290 12.97678 36063 ft 439 kts 219°
2026-04-20 20:20 47.50100 12.92793 36039 ft 438 kts 219°
2026-04-20 20:20 47.44953 12.87956 36054 ft 439 kts 219°
2026-04-20 20:21 47.39777 12.83108 36046 ft 437 kts 219°
2026-04-20 20:21 47.34637 12.78303 36067 ft 438 kts 219°
2026-04-20 20:22 47.29478 12.73494 36075 ft 437 kts 219°
2026-04-20 20:22 47.24315 12.68689 36065 ft 437 kts 219°
2026-04-20 20:23 47.19172 12.63911 36076 ft 437 kts 219°
2026-04-20 20:23 47.14072 12.59188 36058 ft 437 kts 219°
2026-04-20 20:24 47.08926 12.54433 36137 ft 437 kts 219°
2026-04-20 20:24 47.06379 12.52081 36387 ft 438 kts 219°
2026-04-20 20:24 47.03786 12.49690 36708 ft 438 kts 218°
2026-04-20 20:25 47.01194 12.47304 36967 ft 439 kts 218°
2026-04-20 20:25 46.98606 12.44923 37067 ft 441 kts 218°
2026-04-20 20:25 46.93397 12.40146 37038 ft 437 kts 218°
2026-04-20 20:26 46.88242 12.35430 37036 ft 439 kts 218°
2026-04-20 20:26 46.83065 12.30701 37017 ft 438 kts 218°
2026-04-20 20:27 46.78043 12.25717 37040 ft 433 kts 223°
2026-04-20 20:27 46.73376 12.20181 37031 ft 430 kts 226°
2026-04-20 20:28 46.68821 12.14547 37029 ft 430 kts 226°
2026-04-20 20:28 46.64257 12.08942 37035 ft 429 kts 226°
2026-04-20 20:29 46.59619 12.03312 37032 ft 429 kts 226°
2026-04-20 20:29 46.55024 11.97782 36994 ft 429 kts 226°
2026-04-20 20:30 46.50422 11.92273 36985 ft 430 kts 226°
2026-04-20 20:30 46.45815 11.86777 36985 ft 428 kts 226°
2026-04-20 20:31 46.41200 11.81286 36988 ft 429 kts 226°
2026-04-20 20:31 46.36578 11.75800 36981 ft 428 kts 226°
2026-04-20 20:32 46.31978 11.70352 36984 ft 428 kts 226°
2026-04-20 20:32 46.27305 11.64827 36989 ft 428 kts 226°
2026-04-20 20:33 46.22716 11.59419 36975 ft 428 kts 226°
2026-04-20 20:33 46.18099 11.53988 36976 ft 427 kts 226°
2026-04-20 20:34 46.13475 11.48559 36968 ft 426 kts 226°
2026-04-20 20:34 46.08869 11.43167 36950 ft 427 kts 226°
2026-04-20 20:35 46.04233 11.37748 36944 ft 428 kts 226°
2026-04-20 20:35 45.99646 11.32403 36936 ft 426 kts 226°
2026-04-20 20:36 45.95016 11.27014 36941 ft 426 kts 225°
2026-04-20 20:36 45.90417 11.21676 36939 ft 425 kts 225°
2026-04-20 20:37 45.85821 11.16353 36950 ft 425 kts 225°
2026-04-20 20:37 45.81220 11.11036 36946 ft 425 kts 226°
2026-04-20 20:38 45.76594 11.05701 36943 ft 425 kts 226°
2026-04-20 20:38 45.71998 11.00413 36934 ft 425 kts 225°
2026-04-20 20:39 45.67385 10.95118 36938 ft 425 kts 225°
2026-04-20 20:39 45.62812 10.89881 36944 ft 424 kts 225°
2026-04-20 20:40 45.58184 10.84586 36932 ft 426 kts 226°
2026-04-20 20:40 45.53548 10.79300 36929 ft 425 kts 226°
2026-04-20 20:41 45.48923 10.74038 36919 ft 424 kts 226°
2026-04-20 20:41 45.44301 10.68788 36917 ft 425 kts 226°
2026-04-20 20:42 45.39685 10.63559 36918 ft 422 kts 226°
2026-04-20 20:42 45.35096 10.58366 36915 ft 425 kts 226°
2026-04-20 20:43 45.30495 10.53176 36914 ft 423 kts 226°
2026-04-20 20:43 45.25881 10.47980 36910 ft 424 kts 226°
2026-04-20 20:44 45.21228 10.42752 36909 ft 424 kts 226°
2026-04-20 20:44 45.16575 10.37539 36905 ft 423 kts 226°
2026-04-20 20:45 45.11966 10.32380 36905 ft 425 kts 225°
2026-04-20 20:45 45.07322 10.27199 36899 ft 422 kts 225°
2026-04-20 20:46 45.02730 10.22081 36906 ft 424 kts 225°
2026-04-20 20:46 44.98073 10.16905 36891 ft 423 kts 225°
2026-04-20 20:47 44.93490 10.11823 36896 ft 422 kts 225°
2026-04-20 20:47 44.88864 10.06697 36895 ft 423 kts 225°
2026-04-20 20:48 44.84192 10.01532 36897 ft 425 kts 225°
2026-04-20 20:48 44.79523 9.96384 36898 ft 426 kts 225°
2026-04-20 20:49 44.74901 9.91298 36904 ft 425 kts 225°
2026-04-20 20:49 44.70236 9.86177 36906 ft 425 kts 225°
2026-04-20 20:50 44.65559 9.81058 36903 ft 425 kts 225°
2026-04-20 20:50 44.60865 9.75932 36901 ft 424 kts 225°
2026-04-20 20:51 44.56185 9.70824 36901 ft 425 kts 225°
2026-04-20 20:51 44.51526 9.65753 36907 ft 424 kts 225°
2026-04-20 20:52 44.46876 9.60701 36913 ft 426 kts 225°
2026-04-20 20:52 44.42195 9.55627 36913 ft 425 kts 225°
2026-04-20 20:53 44.37530 9.50584 36906 ft 425 kts 225°
2026-04-20 20:53 44.32843 9.45523 36911 ft 425 kts 225°
2026-04-20 20:54 44.28165 9.40485 36907 ft 424 kts 225°
2026-04-20 20:54 44.23489 9.35457 36907 ft 426 kts 225°
2026-04-20 20:55 44.18781 9.30406 36905 ft 427 kts 224°
2026-04-20 20:55 44.14117 9.25417 36918 ft 425 kts 224°
2026-04-20 20:56 44.09411 9.20387 36907 ft 425 kts 224°
2026-04-20 20:56 44.04731 9.15396 36913 ft 425 kts 224°
2026-04-20 20:57 44.00033 9.10394 36909 ft 426 kts 224°
2026-04-20 20:57 43.95345 9.05416 36909 ft 427 kts 224°
2026-04-20 20:58 43.90634 9.00430 36913 ft 425 kts 224°
2026-04-20 20:58 43.85963 8.95495 36901 ft 424 kts 224°
2026-04-20 20:59 43.81267 8.90540 36904 ft 426 kts 224°
2026-04-20 20:59 43.76563 8.85586 36907 ft 427 kts 224°
2026-04-20 21:00 43.71850 8.80635 36910 ft 428 kts 224°
2026-04-20 21:00 43.67062 8.75691 36907 ft 430 kts 221°
2026-04-20 21:01 43.61621 8.72028 36908 ft 446 kts 201°
2026-04-20 21:01 43.55379 8.71044 36908 ft 459 kts 188°
2026-04-20 21:02 43.49004 8.70630 36906 ft 453 kts 195°
2026-04-20 21:02 43.46004 8.69496 36914 ft 441 kts 210°
2026-04-20 21:02 43.43339 8.67475 36916 ft 430 kts 222°
2026-04-20 21:03 43.38786 8.62343 36911 ft 424 kts 228°
2026-04-20 21:03 43.34426 8.56898 36919 ft 423 kts 229°
2026-04-20 21:04 43.30119 8.51460 36918 ft 423 kts 229°
2026-04-20 21:04 43.25755 8.46015 36919 ft 422 kts 229°
2026-04-20 21:05 43.21392 8.40620 36920 ft 423 kts 229°
2026-04-20 21:05 43.17010 8.35233 36922 ft 424 kts 228°
2026-04-20 21:06 43.12592 8.29820 36924 ft 425 kts 227°
2026-04-20 21:06 43.08222 8.24488 36923 ft 424 kts 227°
2026-04-20 21:07 43.03798 8.19101 36912 ft 426 kts 228°
2026-04-20 21:07 42.99353 8.13700 36910 ft 426 kts 228°
2026-04-20 21:08 42.94944 8.08352 36910 ft 426 kts 227°
2026-04-20 21:08 42.90527 8.03006 36910 ft 424 kts 227°
2026-04-20 21:09 42.86082 7.97637 36925 ft 425 kts 227°
2026-04-20 21:09 42.81700 7.92351 36926 ft 426 kts 227°
2026-04-20 21:10 42.77256 7.87001 36922 ft 426 kts 227°
2026-04-20 21:10 42.72810 7.81661 36923 ft 426 kts 227°
2026-04-20 21:11 42.68342 7.76301 36925 ft 428 kts 227°
2026-04-20 21:11 42.63886 7.70969 36901 ft 427 kts 227°
2026-04-20 21:12 42.59419 7.65637 36921 ft 429 kts 227°
2026-04-20 21:12 42.54935 7.60290 36927 ft 428 kts 227°
2026-04-20 21:13 42.50458 7.54967 36913 ft 429 kts 227°
2026-04-20 21:13 42.45994 7.49667 36909 ft 429 kts 227°
2026-04-20 21:14 42.41501 7.44344 36914 ft 430 kts 227°
2026-04-20 21:14 42.37021 7.39048 36914 ft 430 kts 227°
2026-04-20 21:15 42.32490 7.33700 36916 ft 431 kts 226°
2026-04-20 21:15 42.27976 7.28383 36914 ft 431 kts 226°
2026-04-20 21:16 42.23476 7.23094 36915 ft 433 kts 226°
2026-04-20 21:16 42.18946 7.17780 36912 ft 432 kts 226°
2026-04-20 21:17 42.14410 7.12471 36921 ft 431 kts 226°
2026-04-20 21:17 42.09876 7.07172 36894 ft 434 kts 226°
2026-04-20 21:18 42.05306 7.01843 36963 ft 434 kts 226°
2026-04-20 21:18 42.00808 6.96592 36921 ft 431 kts 226°
2026-04-20 21:19 41.96370 6.91193 36925 ft 429 kts 227°
2026-04-20 21:19 41.94179 6.88485 36784 ft 427 kts 227°
2026-04-20 21:20 41.89782 6.83046 36926 ft 434 kts 227°
2026-04-20 21:20 41.85334 6.77579 36936 ft 433 kts 227°
2026-04-20 21:21 41.80902 6.72164 36943 ft 432 kts 227°
2026-04-20 21:21 41.76492 6.66791 36942 ft 431 kts 227°
2026-04-20 21:22 41.72053 6.61397 36947 ft 432 kts 227°
2026-04-20 21:22 41.67611 6.56012 36953 ft 431 kts 227°
2026-04-20 21:23 41.63171 6.50637 36952 ft 431 kts 227°
2026-04-20 21:23 41.58719 6.45260 36954 ft 431 kts 227°
2026-04-20 21:24 41.54284 6.39914 36954 ft 431 kts 227°
2026-04-20 21:24 41.49829 6.34554 36955 ft 431 kts 226°
2026-04-20 21:25 41.45351 6.29176 36955 ft 433 kts 226°
2026-04-20 21:25 41.40905 6.23848 36960 ft 432 kts 226°
2026-04-20 21:26 41.36444 6.18513 36953 ft 431 kts 226°
2026-04-20 21:26 41.31976 6.13179 36959 ft 432 kts 226°
2026-04-20 21:27 41.27487 6.07831 36962 ft 431 kts 226°
2026-04-20 21:27 41.23006 6.02502 36962 ft 432 kts 226°
2026-04-20 21:28 41.18546 5.97211 36958 ft 431 kts 226°
2026-04-20 21:28 41.14058 5.91892 36963 ft 431 kts 226°
2026-04-20 21:29 41.09611 5.86634 36961 ft 431 kts 226°
2026-04-20 21:29 41.05138 5.81354 36967 ft 432 kts 226°
2026-04-20 21:30 41.00655 5.76073 36965 ft 431 kts 226°
2026-04-20 21:30 40.96228 5.70765 36972 ft 430 kts 229°
2026-04-20 21:31 40.92340 5.64845 36971 ft 426 kts 237°
2026-04-20 21:31 40.88881 5.58530 36970 ft 425 kts 239°
2026-04-20 21:32 40.85507 5.52120 36971 ft 423 kts 239°
2026-04-20 21:32 40.82133 5.45740 36970 ft 424 kts 239°
2026-04-20 21:33 40.78731 5.39372 36954 ft 424 kts 239°
2026-04-20 21:33 40.77048 5.36236 36666 ft 425 kts 239°
2026-04-20 21:33 40.75333 5.33054 36388 ft 422 kts 238°
2026-04-20 21:33 40.73624 5.29888 36131 ft 419 kts 238°
2026-04-20 21:34 40.71943 5.26781 35714 ft 415 kts 238°
2026-04-20 21:34 40.70258 5.23671 35081 ft 416 kts 238°
2026-04-20 21:34 40.68576 5.20564 34382 ft 418 kts 238°
2026-04-20 21:34 40.66894 5.17460 33581 ft 420 kts 238°
2026-04-20 21:35 40.65202 5.14340 32806 ft 422 kts 238°
2026-04-20 21:35 40.63491 5.11191 32007 ft 424 kts 238°
2026-04-20 21:35 40.61766 5.08021 31200 ft 425 kts 238°
2026-04-20 21:35 40.60044 5.04862 30588 ft 422 kts 238°
2026-04-20 21:36 40.58367 5.01791 30003 ft 419 kts 238°
2026-04-20 21:36 40.56661 4.98670 29380 ft 415 kts 238°
2026-04-20 21:36 40.54997 4.95629 28783 ft 412 kts 238°
2026-04-20 21:36 40.53333 4.92588 28171 ft 409 kts 238°
2026-04-20 21:37 40.51694 4.89594 27568 ft 406 kts 238°
2026-04-20 21:37 40.50055 4.86605 26972 ft 404 kts 238°
2026-04-20 21:37 40.48410 4.83604 26368 ft 401 kts 238°
2026-04-20 21:37 40.46786 4.80647 25765 ft 399 kts 238°
2026-04-20 21:38 40.45178 4.77720 25167 ft 396 kts 238°
2026-04-20 21:38 40.43574 4.74802 24566 ft 394 kts 238°
2026-04-20 21:38 40.41977 4.71900 23972 ft 392 kts 237°
2026-04-20 21:38 40.40401 4.69036 23378 ft 390 kts 237°
2026-04-20 21:39 40.38811 4.66152 22972 ft 383 kts 237°
2026-04-20 21:39 40.37267 4.63357 22953 ft 380 kts 237°
2026-04-20 21:39 40.35710 4.60535 22953 ft 388 kts 237°
2026-04-20 21:39 40.34130 4.57672 22948 ft 389 kts 237°
2026-04-20 21:40 40.32535 4.54790 22952 ft 387 kts 237°
2026-04-20 21:40 40.30966 4.51959 22951 ft 387 kts 237°
2026-04-20 21:40 40.29375 4.49090 22953 ft 388 kts 237°
2026-04-20 21:40 40.27797 4.46248 22953 ft 388 kts 237°
2026-04-20 21:41 40.26221 4.43413 22955 ft 387 kts 237°
2026-04-20 21:41 40.24617 4.40529 22953 ft 388 kts 237°
2026-04-20 21:41 40.23034 4.37684 22955 ft 388 kts 237°
2026-04-20 21:41 40.21449 4.34840 22958 ft 388 kts 237°
2026-04-20 21:42 40.19869 4.32008 22961 ft 387 kts 237°
2026-04-20 21:42 40.18290 4.29179 22962 ft 387 kts 237°
2026-04-20 21:42 40.16713 4.26357 22962 ft 387 kts 237°
2026-04-20 21:42 40.15118 4.23504 22963 ft 387 kts 237°
2026-04-20 21:43 40.13536 4.20677 22964 ft 386 kts 237°
2026-04-20 21:43 40.11952 4.17850 22968 ft 386 kts 237°
2026-04-20 21:43 40.10370 4.15027 22609 ft 385 kts 236°
2026-04-20 21:43 40.08791 4.12216 22034 ft 383 kts 237°
2026-04-20 21:44 40.07241 4.09459 21456 ft 381 kts 237°
2026-04-20 21:44 40.05670 4.06665 20869 ft 379 kts 237°
2026-04-20 21:44 40.04199 4.03852 20428 ft 370 kts 242°
2026-04-20 21:44 40.03021 4.00926 19967 ft 364 kts 248°
2026-04-20 21:45 40.02007 3.97957 19436 ft 360 kts 249°
2026-04-20 21:45 40.01034 3.94974 18883 ft 358 kts 249°
2026-04-20 21:45 40.00050 3.91979 18321 ft 356 kts 249°
2026-04-20 21:45 39.99068 3.89043 17771 ft 354 kts 249°
2026-04-20 21:46 39.98069 3.86142 17213 ft 353 kts 248°
2026-04-20 21:46 39.97051 3.83257 16655 ft 351 kts 247°
2026-04-20 21:46 39.96019 3.80389 16093 ft 350 kts 247°
2026-04-20 21:46 39.94990 3.77554 15529 ft 348 kts 246°
2026-04-20 21:47 39.93944 3.74690 14974 ft 347 kts 246°
2026-04-20 21:47 39.92917 3.71880 14408 ft 345 kts 246°
2026-04-20 21:47 39.91888 3.69070 13859 ft 343 kts 246°
2026-04-20 21:47 39.90867 3.66279 13301 ft 342 kts 246°
2026-04-20 21:48 39.89849 3.63498 12757 ft 340 kts 246°
2026-04-20 21:48 39.88837 3.60736 12211 ft 339 kts 246°
2026-04-20 21:48 39.87828 3.57983 11661 ft 337 kts 246°
2026-04-20 21:48 39.86837 3.55279 11122 ft 335 kts 246°
2026-04-20 21:49 39.85826 3.52528 10659 ft 331 kts 246°
2026-04-20 21:49 39.84849 3.49871 10407 ft 321 kts 246°
2026-04-20 21:49 39.83907 3.47315 10287 ft 307 kts 246°
2026-04-20 21:49 39.83004 3.44866 10161 ft 294 kts 246°
2026-04-20 21:50 39.82137 3.42511 9938 ft 286 kts 246°
2026-04-20 21:50 39.81286 3.40200 9563 ft 285 kts 246°
2026-04-20 21:50 39.80431 3.37879 9191 ft 283 kts 246°
2026-04-20 21:50 39.79583 3.35581 8829 ft 280 kts 246°
2026-04-20 21:51 39.78748 3.33322 8479 ft 278 kts 245°
2026-04-20 21:51 39.77909 3.31052 8127 ft 276 kts 245°
2026-04-20 21:51 39.77087 3.28833 7772 ft 274 kts 245°
2026-04-20 21:51 39.76264 3.26611 7426 ft 272 kts 245°
2026-04-20 21:52 39.75442 3.24398 7089 ft 270 kts 245°
2026-04-20 21:52 39.74639 3.22234 6750 ft 268 kts 245°
2026-04-20 21:52 39.73828 3.20050 6407 ft 266 kts 245°
2026-04-20 21:52 39.73037 3.17920 6069 ft 264 kts 245°
2026-04-20 21:53 39.72242 3.15781 5733 ft 262 kts 245°
2026-04-20 21:53 39.71446 3.13644 5398 ft 261 kts 245°
2026-04-20 21:53 39.70663 3.11542 5062 ft 259 kts 245°
2026-04-20 21:53 39.69881 3.09443 4830 ft 253 kts 245°
2026-04-20 21:54 39.69143 3.07418 4635 ft 246 kts 246°
2026-04-20 21:54 39.68440 3.05418 4416 ft 239 kts 246°
2026-04-20 21:54 39.67782 3.03478 4209 ft 233 kts 247°
2026-04-20 21:54 39.67166 3.01531 3941 ft 230 kts 250°
2026-04-20 21:55 39.66577 2.99639 3688 ft 228 kts 244°
2026-04-20 21:55 39.65818 2.97836 3435 ft 224 kts 238°
2026-04-20 21:55 39.65000 2.96152 3208 ft 218 kts 237°
2026-04-20 21:55 39.64212 2.94525 3011 ft 211 kts 238°
2026-04-20 21:56 39.63457 2.92916 2807 ft 204 kts 238°
2026-04-20 21:56 39.62748 2.91402 2625 ft 189 kts 238°
2026-04-20 21:56 39.62106 2.90041 2561 ft 164 kts 238°
2026-04-20 21:56 39.61508 2.88775 2323 ft 163 kts 238°
2026-04-20 21:57 39.60934 2.87560 2045 ft 155 kts 238°
2026-04-20 21:57 39.60363 2.86350 1889 ft 158 kts 238°
2026-04-20 21:57 39.59779 2.85116 1678 ft 162 kts 238°
2026-04-20 21:57 39.59187 2.83869 1476 ft 165 kts 238°
2026-04-20 21:58 39.58592 2.82607 1200 ft 162 kts 238°
2026-04-20 21:58 39.58022 2.81381 993 ft 156 kts 238°
2026-04-20 21:58 39.57447 2.80193 771 ft 155 kts 238°
2026-04-20 21:58 39.56879 2.79005 539 ft 154 kts 239°
2026-04-20 21:59 39.56327 2.77826 351 ft 153 kts 239°
2026-04-20 21:59 39.55767 2.76654 158 ft 152 kts 239°
2026-04-20 21:59 39.55227 2.75502 34 ft 142 kts 239°
2026-04-20 21:59 39.54843 2.74689 34 ft 69 kts 239°
2026-04-20 22:00 39.54650 2.74274 34 ft 41 kts 239°
2026-04-20 22:00 39.54554 2.73991 34 ft 24 kts 262°
2026-04-20 22:00 39.54549 2.73845 34 ft 7 kts 270°
2026-04-20 22:00 39.54549 2.73795 34 ft 6 kts 273°
2026-04-20 22:01 39.54596 2.73740 34 ft 11 kts 27°
2026-04-20 22:01 39.54646 2.73826 34 ft 13 kts 58°
2026-04-20 22:01 39.54704 2.73926 34 ft 13 kts 21°
2026-04-20 22:01 39.54784 2.73941 34 ft 12 kts 51°
2026-04-20 22:02 39.54850 2.73990 34 ft 11 kts 342°
2026-04-20 22:02 39.54913 2.73947 34 ft 7 kts 328°
2026-04-20 22:02 39.54920 2.73901 34 ft 5 kts 253°
2026-04-20 22:02 39.54906 2.73854 34 ft 5 kts 247°
2026-04-20 22:03 39.54895 2.73819 34 ft 2 kts 249°
2026-04-20 22:03 39.54893 2.73814 34 ft 0 kts 249°